{"data":{"norad_id":52272,"intl_designator":"2022-041M","name":"STARLINK-3781","alt_names":[],"object_type":"PAYLOAD","status":"ACTIVE","operator":null,"country":"US","launch_date":"2022-04-21","launch_site_code":"AFETR","launch_vehicle":null,"mission":null,"orbit_class":"UNKNOWN","rcs_meters":null,"size_class":null,"mass_kg":null,"dimensions":null,"purposes":["comms"],"wikipedia_slug":null,"has_3d_model":false,"image_url":null,"decayed_at":null,"tle_current":{"epoch":"2026-09-19T17:42:40.959648Z","epoch_age_seconds":125352,"freshness":"FRESH","line1":"1 52272U 22041M   26262.73797407  .00001394  00000+0  56654-4 0  9995","line2":"2 52272  53.1600 304.4710 0001057  70.3868 289.7247 15.31706696243843","mean_motion":15.31706696,"eccentricity":0.0001057,"inclination_deg":53.16,"raan_deg":304.471,"arg_perigee_deg":70.3868,"mean_anomaly_deg":289.7247,"bstar":5.6654e-5,"rev_number":24384,"period_min":94.012776973588,"perigee_km":469.99611068221,"apogee_km":471.44395905938,"semimajor_km":6848.8570348708,"source":"CELESTRAK","updated_at":"2026-09-20T09:00:40.012989Z"}}}